Other Public Products
Issued by NWS Grand Forks, ND

Home | Current Version | Previous Version | Graphics & Text | Print | Product List | Glossary On
Versions: 1 2 3 4 5 6 7 8 9 10 11 12 13 14 15 16 17 18 19 20 21 22 23 24 25 26 27 28 29 30 31 32 33 34 35 36 37 38 39 40 41 42 43 44 45 46 47 48 49 50
000
FPUS83 KFGF 271731
OPUFGF
PRAIRIE TO PINES WEATHER ROUNDUP
NATIONAL WEATHER SERVICE EASTERN NORTH DAKOTA/GRAND FORKS ND
1100 AM CST SAT DEC 27 2014

 **SATELLITE DATA USED TO AUGMENT SKY COVER AT AUTOMATED STATIONS**
 *****  WEATHER ACROSS EASTERN NORTH DAKOTA  *****

CITY           SKY/WX    TMP DP  RH WIND       PRES   REMARKS
GRAND FORKS    LGT SNOW  12   9  85 S10       30.06F FOG     WCI  -1
GRAND FORKS AF CLOUDY    14  12  92 S8        30.05F WCI   3
GRAND CITY NWS   N/A     12 N/A N/A S6          N/A  WCI   3
BUXTON           N/A     12   9  90 S7          N/A  WCI   1
DEVILS LAKE    PTSUNNY   19  12  73 NW9       30.02R WCI   9
FARGO          CLOUDY    13   8  81 S10       30.11F WCI   0
WAHPETON ARPT  PTSUNNY   16   9  73 SW7       30.12F WCI   6
$$

 *****  WEATHER ACROSS CENTRAL AND WESTERN NORTH DAKOTA  *****

CITY           SKY/WX    TMP DP  RH WIND       PRES   REMARKS
JAMESTOWN      MOSUNNY   19  14  81 W12       30.05F WCI   7
BISMARCK       SUNNY     23  16  74 SW6       30.08F WCI  16
MINOT          CLOUDY    21  13  71 SW7       29.98F WCI  12
MINOT AFB      CLOUDY    20  17  88 W7        29.98F WCI  11
GARRISON         N/A     22  19  89 W3        30.00F
WILLISTON      CLOUDY    20  15  81 W15       30.01R WCI   6
DICKINSON      MOSUNNY   23  15  71 SW18      29.99F WCI   9
HETTINGER      SUNNY     22  15  75 W14       30.06S WCI   9
$$

 *****  OTHER OBSERVATIONS NORTHEAST NORTH DAKOTA  *****

CITY           SKY/WX    TMP DP  RH WIND       PRES   REMARKS
WALHALLA         N/A     18  16  93 NW8       30.03F WCI   7
LANGDON        CLOUDY    16  12  86 NW9       29.98F WCI   4
CAVALIER       PTSUNNY   12   9  85 S7        30.04F WCI   2
GRAFTON        NOT AVBL
CANDO          CLOUDY    18  14  86 W8        30.01F WCI   7
FORT TOTTEN    NOT AVBL
ROLLA          CLOUDY    16  14  93 NW3       29.98F
RUGBY          FAIR      19  16  86 W7        30.00F WCI  10
 ***** THE ABOVE OBSERVATIONS ARE NON NWS ARE NOT QUALITY
        CONTROLLED AND MAY MIS-REPORT RAIN FOR SNOW...
$$

 *****  OTHER OBSERVATIONS SOUTHEAST NORTH DAKOTA *****

CITY           SKY/WX    TMP DP  RH WIND       PRES   REMARKS
COOPERSTOWN    NOT AVBL
VALLEY CITY    CLOUDY    18  18 100 W9        30.05F WCI   6
OAKES            N/A     14  14 100 S7        30.10F WCI   4
GWINNER        CLOUDY    14  12  92 SW14      30.11S WCI  -1
SHEYENNE NWR     N/A     15   8  75 SW10      29.95S WCI   2
BUFFALO        NOT AVBL
WYNDMERE         N/A     14   9  79 SW12        N/A  WCI   0
 ***** THE ABOVE OBSERVATIONS ARE NON NWS ARE NOT QUALITY
       CONTROLLED AND MAY MIS-REPORT RAIN FOR SNOW...
$$

  *****  WEATHER ACROSS NORTHERN MINNESOTA  *****

CITY           SKY/WX    TMP DP  RH WIND       PRES   REMARKS
FLAG ISLAND    FLURRIES   9   5  85 S10       29.99F WCI  -6
WARROAD        CLOUDY     9   3  78 SW8       30.01F WCI  -4
ROSEAU         CLOUDY    10   5  79 SW10      30.02F WCI  -3
HALLOCK        LGT SNOW  10   7  85 SW10      30.06S WCI  -3
THF RVR FALLS  CLOUDY     9   7  92 S9        30.04F WCI  -5
HALSTAD          N/A     13   7  76 SW9         N/A  WCI   1
FOSSTON        FLURRIES   9   5  85 SW12      30.06F WCI  -6
BAUDETTE       CLOUDY    10   5  80 S7        30.02F WCI  -1
WASKISH        FLURRIES  12   9  85 CALM      30.03F
CROOKSTON      LGT SNOW  10   7  85 S12       30.09F WCI  -4
$$
  *****  WEATHER ACROSS CENTRAL AND WEST MINNESOTA  *****

CITY           SKY/WX    TMP DP  RH WIND       PRES   REMARKS
BEMIDJI        CLOUDY    12   5  74 SW3       30.03F
PARK RAPIDS    CLOUDY    15   6  67 W6        30.05F WCI   6
WADENA         SUNNY     14   7  73 W7        30.06F WCI   4
DETROIT LAKES  MOSUNNY   12  10  92 SW6       30.08F WCI   3
MOORHEAD       CLOUDY    14  12  92 S10       30.10F WCI   1
FERGUS FALLS   SUNNY     12   7  79 W7        30.15F WCI   2
ELBOW LAKE     FAIR      13   8  79 W7        30.11F WCI   3
MORRIS MN      SUNNY     16   7  67 W5        30.12F WCI   9
STAPLES        SUNNY     14   7  73 W5        30.06F WCI   6
WHEATON        SUNNY     14   7  73 SW6       30.15F WCI   5
$$
  *****  WEATHER ELSEWHERE ACROSS MINNESOTA  *****

CITY           SKY/WX    TMP DP  RH WIND       PRES   REMARKS
DULUTH         MOSUNNY   18   9  68 NW14      29.98F WCI   4
INTRNTL FALLS  PTSUNNY   12   5  73 VRB6      30.02F WCI   3
ELY            FLURRIES  12   7  79 W3        29.97F
CLOQUET        MOSUNNY   19  10  68 NW9       29.99F WCI   9
BRAINERD       SUNNY     18  10  71 NW8       30.06F WCI   8
HIBBING        MOSUNNY   17   8  67 NW8       30.00F WCI   7
ALEXANDRIA     SUNNY     13   5  70 NW7       30.09F WCI   3
SAINT CLOUD    SUNNY     23  14  68 NW13      30.08S WCI  11
MINNEAPOLIS    CLOUDY    24  17  74 NW14      30.09R WCI  12
$$

  *****  WEATHER ACROSS SOUTH DAKOTA  *****

CITY           SKY/WX    TMP DP  RH WIND       PRES   REMARKS
SIOUX FALLS    SUNNY     13   9  84 W6        30.21R WCI   4
BROOKINGS      NOT AVBL
WATERTOWN      SUNNY      8   4  83 SW6       30.12F WCI  -2
HURON          SUNNY      9   6  88 SW6       30.21R WCI  -1
SISSETON         N/A     16   8  71 W7        30.12F WCI   6
ABERDEEN       SUNNY     14   9  80 SW10      30.15S WCI   1
MITCHELL       SUNNY     13   8  81 W9        30.24R WCI   1
PIERRE         SUNNY     12   8  84 SW8       30.17R WCI   0
MOBRIDGE       SUNNY     13   9  84 SE5       30.10S WCI   5
RAPID CITY     SUNNY     17   9  70 CALM      30.11R
$$

  *****  SOME WEATHER IN NEARBY STATES *****

CITY           SKY/WX    TMP DP  RH WIND       PRES   REMARKS
GLASGOW MT     CLOUDY    19  15  84 SW6       30.03S WCI  11
GREAT FALLS MT CLOUDY    25  18  74 SW17      29.99F WCI  12
CHEYENNE WY    SUNNY     16   2  54 W17       30.09R WCI   0
SCOTTSBLUFF NE SUNNY      8   4  83 NW8       30.18S WCI  -4
OMAHA NE       PTSUNNY   24  18  77 NW13      30.28S WCI  12
DES MOINES IA  CLOUDY    28  22  78 NW13      30.21R WCI  17
DAVENPORT IA   CLOUDY    34  28  79 W22G28    30.09R WCI  22
CHICAGO IL     DRIZZLE   48  46  93 SW17G25   29.94F FOG
EAU CLAIRE WI  CLOUDY    26  20  77 NW12      29.99R WCI  16
LA CROSSE WI   CLOUDY    31  26  82 W16       30.00R WCI  20
$$

  *****  SOME NATIONAL WEATHER *****

CITY           SKY/WX    TMP DP  RH WIND       PRES   REMARKS
LA GUARDIA NY  FAIR      51  33  50 NW3       30.24F
RALEIGH NC     FAIR      57  39  51 SW8       30.30F
ATLANTA GA     CLOUDY    52  39  61 E8        30.30F
NEW ORLEANS LA LGT RAIN  68  65  90 S15       30.14F FOG
OKLAHOMA CITY  LGT SNOW  30  25  80 N15       30.32S WCI  19
ALBUQUERQUE NM MOSUNNY   28  15  58 N8        30.27R WCI  20
SALT LAKE CITY MOSUNNY   22  14  71 S10       30.37R WCI  11
LOS ANGELES CA MOSUNNY   50  24  36 E3        30.32R
BOISE ID       PTSUNNY   25  16  68 SE12      30.33R WCI  14
SEATTLE WA     CLOUDY    45  43  93 S13       30.12F
$$

*** WEATHER ACROSS MANITOBA...SASKATCHEWAN AND ONTARIO ***
                ***ONTARIO***

CITY           SKY/WX    TMP DP  RH WIND       PRES   REMARKS
GERALDTON      FLURRIES  19  14  79 NE6       29.93F WCI  11
THUNDER BAY    CLOUDY    21  16  79 NW12      29.97  WCI   9
SIOUX LOOKOUT  CLOUDY     1   0  92 S7        29.98F WCI -11
TORONTO        PTSUNNY   45  39  81 S3        30.05F
BIG TROUT LK   FLURRIES  -6  -9  84 SW8       30.01F WCI -21
PICKLE LAKE    FLURRIES   0  -4  85 CALM      29.97F
DRYDEN         FLURRIES   3   1  92 S7        29.98F WCI  -9
KENORA         FLURRIES   7   3  85 S13       29.97F WCI  -9
$$
                *** MANITOBA***

CITY           SKY/WX    TMP DP  RH WIND       PRES   REMARKS
BRANDON        FLURRIES  12   9  85 W6        30.01  WCI   3
DAUPHIN        FLURRIES   3   0  85 NE8       30.05R WCI -10
ISLAND LAKE    FLURRIES  -8 -13  77 SW6       29.99F WCI -21
PILOT MOUND      N/A     14  10  85 W3          N/A
THE PAS        CLOUDY   -22 -27  76 NW8       30.12S WCI -41
THOMPSON       PTCLDY   -24 -29  76 NW8       30.04R WCI -43
WINNIPEG       CLOUDY     7   1  78 W7        30.04F WCI  -5
CHURCHILL      LGT SNOW  -2  -6  84 N22       29.99S BLWGSNOWWCI -26
GILLAM         MOCLDY   -18 -26  69 W9        29.99S WCI -38
$$
                ***SASKATCHEWAN***

CITY           SKY/WX    TMP DP  RH WIND       PRES   REMARKS
ESTEVAN        CLOUDY    18  12  79 W10       29.96  WCI   6
KINDERSLEY     MOCLDY    12  10  92 SE2       29.94
LLOYDMINSTER   LGT SNOW  10   7  85 E10       29.96R WCI  -3
PRINCE ALBERT  PTCLDY   -15 -20  76 NW5       30.14R WCI -27
REGINA         LGT SNOW  14  10  85 NW5       29.99  FOG     WCI   6
YORKTON        SUNNY      0  -4  85 N9        30.02R WCI -16


USA.gov is the U.S. government's official web portal to all federal, state and local government web resources and services.